Wind_Speed
11 11 10 10 11 11 12 13 14 15 16 16 18 19 21 21 19 17 15 15 15 14 14 14 15 18 19 20 21 22 23 22 20 19 18 17 17 17 19 21 22 23 23 23 23 24 24 25 26 25 26 28 26 23 23 24 25 25 24 24 24 23 23 24 22 20 19 18 18 18 17 17 18 18 16 15 16 16 13 13 15 15 15 15 14
11 11 10 10 11 11 12 13 14 15 16 16 16 17 18 19 18 16 15 15 14 14 14 13 15 17 17 17 17 17 18 19 19 19 18 17 17 19 21 22 23 21 19 20 23 24 24 24 24 24 26 29 27 23 22 24 24 25 25 25 25 24 24 25 23 21 21 20 18 18 19 18 18 18 16 14 16 15 13 13 15 15 15 15 14
11 11 11 11 11 12 12 13 14 15 16 15 15 15 15 16 17 16 15 16 16 16 16 15 16 18 20 20 18 16 16 16 16 18 18 18 19 20 21 21 21 19 17 19 22 23 22 22 22 24 25 26 24 21 22 24 24 25 27 27 27 26 26 25 24 22 21 19 18 18 19 17 16 17 16 15 16 15 13 14 15 15 15 15 15
12 11 11 11 12 12 13 13 14 15 16 16 15 14 14 15 16 16 16 16 16 17 19 19 18 18 20 20 19 18 17 16 15 15 17 19 21 22 21 19 18 17 17 19 22 23 22 21 22 24 25 26 23 21 23 25 24 25 27 27 28 29 29 27 24 23 21 19 19 19 18 15 16 18 17 16 16 16 14 15 16 15 15 15 16
12 12 12 12 12 12 13 14 14 15 16 16 16 16 15 16 16 17 18 18 18 18 19 21 21 21 22 20 20 21 20 19 17 15 16 18 20 22 21 19 17 16 17 21 22 22 21 21 23 25 27 27 25 24 25 26 26 27 27 29 30 31 30 28 25 23 21 20 20 20 18 17 18 18 17 16 16 17 17 16 16 16 15 15 16
13 13 13 13 13 13 13 14 14 15 16 16 17 17 17 17 18 19 19 20 20 20 20 21 22 25 26 25 24 25 25 24 20 17 18 17 17 19 20 20 18 17 18 20 21 21 20 21 24 26 27 26 25 26 28 29 28 27 26 27 27 27 27 25 23 21 20 21 22 20 19 18 18 18 19 18 18 19 20 19 18 17 16 15 14
13 13 14 14 14 14 14 14 15 15 16 16 17 18 18 19 19 20 21 21 22 22 22 22 23 25 27 27 26 26 28 27 23 20 19 17 15 16 18 19 19 18 19 21 22 22 23 24 25 26 27 26 26 27 27 25 23 22 22 23 23 23 24 24 22 20 20 22 22 21 20 19 18 19 21 21 17 16 19 19 17 16 16 15 13
13 14 14 15 15 15 15 16 16 16 17 17 17 18 18 19 20 20 21 21 22 22 22 22 23 24 25 26 26 25 25 26 23 22 21 18 16 17 17 17 19 20 22 23 24 24 25 26 26 26 27 27 27 26 24 21 19 19 21 21 20 22 22 22 20 19 22 22 21 21 21 19 18 18 20 20 16 14 16 16 15 15 15 14 13
14 14 15 15 16 17 17 17 17 17 17 18 18 18 19 20 20 20 20 21 21 22 23 24 24 23 24 25 25 23 22 22 22 22 22 21 19 18 17 17 19 21 23 25 26 25 25 25 24 25 27 26 24 23 21 20 19 19 20 21 20 21 22 21 20 20 24 23 21 22 22 19 19 19 20 20 17 14 15 14 14 14 13 13 13
15 16 16 17 17 18 18 18 19 19 19 19 19 19 20 20 20 21 21 21 22 22 23 25 25 25 24 24 25 23 22 23 23 23 23 23 22 19 17 17 18 21 23 25 26 26 26 26 25 24 25 23 22 23 21 20 21 21 22 22 22 23 23 22 22 23 24 23 22 24 23 20 20 19 19 19 16 14 15 14 13 15 14 14 14
16 16 17 17 18 18 19 19 20 20 20 21 21 21 21 21 21 22 22 23 23 24 24 25 25 26 26 25 25 25 24 23 24 24 24 24 24 22 20 19 20 21 22 23 25 27 28 28 26 26 27 25 25 25 23 22 23 23 24 24 24 24 24 24 24 24 24 24 25 25 24 23 21 19 19 19 17 15 15 14 14 15 15 15 15
16 17 17 18 18 19 19 20 20 21 21 21 21 21 22 22 22 23 23 24 25 25 25 25 25 26 27 27 27 26 24 23 23 24 25 25 25 25 24 23 22 21 22 22 24 27 29 27 26 27 28 28 27 27 26 25 25 26 26 25 25 25 26 25 26 27 27 27 27 27 26 25 23 21 21 20 18 16 17 16 14 15 17 17 18
17 17 18 18 19 19 20 20 20 21 21 21 21 22 22 23 23 24 25 26 27 27 27 27 26 26 26 27 27 26 25 24 22 22 24 24 25 25 25 24 23 21 22 23 23 26 28 27 27 28 27 27 27 27 26 26 27 28 29 28 26 26 27 27 29 30 30 30 30 29 28 28 26 23 22 23 20 19 19 18 15 17 19 20 20
17 18 18 19 19 20 21 21 21 21 22 22 22 23 23 24 25 26 26 27 27 28 29 29 28 28 27 26 26 26 24 23 22 21 21 22 23 24 24 25 25 24 23 23 23 26 28 28 28 29 27 27 27 27 27 27 29 29 29 28 28 27 27 28 29 31 32 33 34 31 29 30 30 26 25 25 23 22 22 19 16 20 23 23 22
17 18 19 19 20 20 21 21 22 22 23 23 23 24 25 25 26 27 28 28 29 29 30 30 30 29 28 27 26 25 24 22 20 20 20 20 21 23 23 25 27 27 25 24 24 26 28 28 28 28 27 27 26 26 27 29 29 29 27 27 27 26 26 27 28 30 32 34 34 31 29 30 31 29 28 28 27 26 23 19 19 24 27 26 25
17 17 17 17 19 19 20 21 22 22 23 24 24 25 26 27 28 28 29 30 30 30 30 31 31 30 29 28 26 25 24 22 20 19 19 19 20 21 22 25 27 28 27 26 25 26 27 27 26 26 25 25 25 25 26 27 27 27 26 25 24 25 25 26 29 31 31 32 32 31 30 31 31 31 29 27 28 28 26 24 25 27 27 26 25
15 15 15 15 16 17 18 20 20 21 23 24 25 26 27 28 28 29 29 29 29 29 29 29 29 29 28 28 26 24 23 22 21 19 19 19 19 19 21 23 25 26 27 27 26 26 27 27 27 27 25 24 24 23 22 23 25 25 24 24 24 24 25 26 29 30 29 29 30 31 33 34 33 32 30 28 29 30 29 28 27 27 26 26 26
13 13 13 13 14 15 16 18 19 20 21 22 23 24 26 27 27 27 28 27 27 27 26 26 27 27 27 27 26 25 23 22 22 21 19 19 18 17 18 19 22 24 26 26 25 26 27 27 27 27 25 23 23 23 23 23 24 24 23 24 24 24 25 27 29 29 29 29 31 32 34 35 34 33 31 29 29 30 29 27 27 27 26 26 27
12 12 13 13 14 15 16 17 18 19 20 21 22 22 23 24 24 24 25 25 25 24 24 23 24 24 24 25 25 24 23 22 22 20 20 18 17 16 15 16 18 20 23 24 24 26 28 28 27 28 27 24 22 24 25 26 25 24 23 23 23 23 25 26 27 26 28 31 33 34 34 34 34 34 32 30 31 31 29 28 28 29 28 28 28
13 13 13 14 15 15 16 17 18 19 20 20 21 21 21 21 22 22 22 22 23 23 22 21 20 21 22 22 23 23 23 22 21 19 17 16 15 16 16 17 18 18 20 21 21 23 26 24 21 24 27 26 23 23 25 25 24 22 22 22 23 24 25 26 25 25 26 29 32 35 36 37 37 36 35 34 34 32 30 29 30 30 30 29 28
14 14 14 15 15 15 16 17 18 19 20 21 21 22 22 22 22 21 21 21 22 22 21 19 17 17 19 20 21 21 21 20 18 17 15 13 11 11 12 16 19 19 20 20 20 23 27 25 22 22 23 24 23 24 25 24 22 20 20 22 24 25 25 26 27 27 27 29 31 34 37 39 40 39 38 38 35 31 30 32 32 31 31 30 29
14 14 14 15 16 15 15 17 18 19 20 21 22 22 22 22 23 22 22 22 21 21 20 19 17 16 16 17 17 18 19 18 16 15 14 13 12 11 12 14 17 18 19 20 20 23 25 24 23 24 23 23 24 25 26 24 23 21 21 22 24 26 26 27 28 29 28 28 29 30 34 37 37 36 38 40 36 33 33 34 34 34 35 34 30
13 14 14 15 16 16 16 16 17 18 18 19 20 21 21 21 22 22 22 22 21 21 20 19 18 16 16 16 16 15 16 17 15 14 13 13 14 16 17 17 18 19 20 19 19 22 23 20 19 21 23 24 25 27 27 25 24 24 24 24 25 25 25 26 27 28 28 28 27 27 30 33 31 32 37 38 35 34 35 37 38 39 39 36 32
13 13 14 14 15 16 16 17 18 18 17 18 18 19 20 20 20 21 21 20 20 20 20 19 17 16 15 15 15 14 14 14 13 12 11 11 12 13 15 17 18 18 19 19 18 21 21 19 17 18 20 22 24 26 27 27 26 26 26 27 27 26 25 24 26 26 27 27 27 26 28 31 30 30 33 33 31 32 36 39 41 40 36 33 31
11 12 13 14 15 16 16 17 17 18 18 18 18 19 19 20 21 21 21 21 20 19 18 18 17 16 15 15 15 14 13 13 12 11 10 10 10 11 12 14 15 15 16 17 18 19 20 19 18 18 21 24 24 24 25 27 27 26 25 27 28 27 26 25 25 25 25 25 26 28 30 32 31 31 33 33 33 34 35 36 36 35 33 32 32
12 13 14 14 15 16 17 17 17 17 17 17 18 19 20 20 21 21 21 21 20 19 18 17 17 17 16 15 14 14 12 11 11 11 10 9 10 11 12 12 12 12 12 10 11 14 19 21 20 20 23 27 27 25 25 25 25 26 27 29 29 29 29 29 27 26 26 27 28 29 31 31 31 32 33 33 34 34 33 33 33 33 34 34 34
13 14 15 16 16 17 18 17 17 18 17 17 17 17 18 19 19 20 20 20 20 20 18 17 16 16 15 15 14 13 13 12 11 11 11 10 11 12 14 14 14 15 14 11 8 10 14 19 20 19 21 25 28 29 29 27 25 25 27 29 30 30 31 33 33 31 30 29 28 28 28 28 29 30 32 32 34 35 36 36 35 35 36 37 37
15 15 15 16 17 18 18 19 19 19 19 19 19 18 17 18 19 20 20 21 21 20 20 19 18 16 16 16 15 14 14 13 12 12 12 12 11 12 14 15 16 17 17 17 16 15 15 17 18 19 20 24 27 28 28 27 28 29 28 28 29 29 30 31 32 31 30 29 29 28 29 29 30 32 33 34 35 37 38 39 39 38 37 36 35
16 16 17 17 17 18 18 19 20 20 20 20 20 20 19 19 20 21 21 21 21 21 21 20 20 19 19 18 17 16 15 14 13 12 11 12 12 12 13 14 16 16 16 17 17 18 18 18 19 20 21 24 26 25 23 23 26 28 28 27 28 29 28 28 29 30 31 31 31 31 31 32 33 34 35 36 37 38 39 38 37 36 34 32 31
16 17 17 18 18 18 19 19 20 20 20 20 21 22 22 22 22 22 22 22 22 21 21 21 21 22 22 22 21 20 19 18 16 14 13 12 13 12 12 12 13 14 15 15 15 16 17 17 18 20 21 23 25 25 23 23 25 26 26 26 27 28 30 31 33 34 35 34 33 33 33 34 35 36 36 36 35 34 33 32 32 30 28 27 25
17 17 17 18 18 18 19 20 20 20 20 21 22 22 23 23 23 23 23 23 22 22 22 22 22 22 22 23 23 23 23 22 21 19 17 15 14 14 14 13 12 12 13 14 15 16 16 15 16 17 17 19 21 23 24 26 27 28 28 29 30 31 33 34 34 34 33 33 33 33 33 34 34 33 33 32 31 30 29 28 27 24 21 18 14
18 17 17 17 17 18 19 19 19 19 20 21 21 22 23 23 23 24 24 24 23 22 23 23 23 22 22 22 22 22 23 23 22 22 21 19 17 16 16 15 15 14 13 12 13 14 16 17 17 17 17 17 18 19 21 23 26 27 28 28 29 29 30 30 30 29 29 29 29 30 30 30 30 30 30 29 27 26 23 20 17 15 13 10 7
17 17 16 16 17 18 19 19 19 19 20 21 21 22 22 23 23 25 26 26 25 24 24 24 23 23 23 22 22 21 22 22 22 22 22 21 20 18 17 16 15 15 14 13 13 13 13 14 16 17 18 18 18 19 20 21 22 23 24 24 25 25 25 26 26 26 27 27 27 28 28 28 27 25 24 22 20 18 16 14 13 11 9 8 7
17 17 17 17 16 17 19 19 19 19 19 20 21 21 21 22 23 24 26 27 27 28 28 26 25 24 24 23 23 21 21 21 21 22 22 21 21 20 19 17 16 15 15 13 12 12 12 12 13 14 15 16 17 18 19 19 20 21 21 22 23 23 24 24 25 25 25 25 24 24 23 22 21 19 18 16 16 15 14 13 11 8 7 7 6
17 17 18 16 15 16 17 18 18 18 18 19 20 20 21 22 23 24 25 26 27 27 27 27 26 25 24 23 23 22 21 20 20 20 21 21 20 20 19 18 17 16 15 14 13 12 11 11 11 11 11 12 12 12 13 14 15 16 17 17 17 18 18 19 19 19 19 18 18 17 16 15 15 15 14 14 13 12 10 8 6 5 5 6 5
15 16 16 16 14 14 16 17 18 18 18 18 19 19 20 21 22 23 24 26 26 26 26 26 27 27 26 24 23 22 21 20 19 19 20 20 20 19 18 18 17 17 16 15 14 12 11 10 10 9 9 9 8 7 7 7 7 7 8 8 8 9 10 11 11 12 12 12 12 12 12 13 13 13 12 11 9 8 6 5 5 5 6 6 5
14 15 15 15 14 14 15 16 18 18 17 17 18 18 19 20 22 22 23 25 27 26 26 26 26 27 27 26 25 23 22 21 20 19 19 19 19 18 18 17 17 17 16 15 14 13 12 11 10 9 8 8 7 6 4 2 1 2 4 5 6 7 8 8 8 9 9 10 11 11 11 11 10 9 8 7 6 5 5 6 7 8 8 8 8
13 15 15 14 15 15 14 14 16 17 16 16 17 18 19 19 21 22 23 24 25 26 25 25 25 26 27 27 27 24 22 21 21 19 18 18 18 18 18 17 17 16 16 15 15 14 13 12 11 10 9 8 7 6 5 3 2 1 3 4 5 6 8 9 9 9 9 8 8 7 7 6 4 4 3 3 3 4 5 6 7 8 9 8 7
12 15 15 14 15 16 15 15 16 16 16 17 18 19 19 19 19 20 21 22 24 25 25 24 24 25 26 27 27 25 24 22 21 20 19 18 18 18 18 17 16 16 16 15 15 14 13 12 11 10 9 9 8 7 6 5 4 3 2 3 4 5 5 6 6 6 6 5 4 4 3 2 2 2 2 3 4 5 6 7 7 7 7 7 7
11 13 13 13 14 16 16 16 16 16 17 18 18 19 19 18 18 19 20 21 22 24 24 24 24 24 25 26 27 27 26 25 24 23 21 20 19 18 17 17 16 16 15 15 14 14 13 12 11 11 10 10 9 8 7 6 6 5 4 4 4 5 5 4 4 3 3 3 2 1 1 1 2 3 3 4 6 6 7 7 7 7 7 8 8
10 12 12 13 14 15 15 15 15 15 16 17 17 17 18 18 18 19 19 20 21 22 23 23 23 24 25 26 27 27 27 27 26 25 24 23 21 19 18 17 17 16 16 15 14 13 13 12 12 11 10 10 10 9 8 7 7 6 6 6 5 4 3 3 2 2 2 1 0 0 1 2 3 4 5 6 7 7 7 7 7 7 8 8 9
10 10 11 12 13 14 13 13 13 14 15 15 15 16 17 18 18 18 19 20 20 21 21 22 23 24 25 26 27 27 27 27 28 28 26 25 23 22 20 18 17 17 16 16 15 13 12 11 10 10 10 10 9 9 8 8 7 7 6 5 3 3 2 2 2 1 1 1 2 2 3 4 4 5 6 7 7 6 6 6 7 7 8 9 9
8 8 9 10 11 11 12 12 13 13 14 14 15 16 17 17 17 17 17 18 19 20 20 20 21 23 24 25 26 26 26 26 26 27 27 26 25 24 23 20 18 17 17 16 15 14 12 10 9 8 8 8 8 8 7 7 6 6 5 4 4 4 4 4 3 2 2 3 3 4 5 5 6 6 6 7 6 6 7 7 7 8 9 9 10
7 8 8 9 10 10 11 12 12 12 13 13 14 15 15 16 16 16 15 16 18 19 19 19 19 20 22 23 25 25 25 25 25 25 25 25 26 26 25 23 20 18 17 16 15 14 13 11 9 7 7 6 6 6 7 6 5 5 4 4 4 5 5 4 3 2 3 4 5 5 6 6 7 6 7 7 7 8 8 8 8 8 8 8 8
6 7 8 8 9 10 11 11 12 12 13 13 14 14 14 15 15 15 14 14 15 16 17 18 18 18 18 20 22 23 23 24 24 24 24 24 24 26 26 25 23 20 18 16 15 14 13 11 9 8 6 6 6 6 6 6 5 5 4 4 4 4 4 4 4 4 5 5 6 6 6 6 6 6 7 7 7 7 6 7 7 8 7 7 7
6 6 7 8 8 9 10 11 12 12 12 12 12 12 13 14 14 14 15 15 15 14 14 15 16 17 17 18 19 20 21 22 22 22 23 22 23 24 25 25 24 21 19 17 16 15 13 12 10 8 6 5 4 5 5 5 5 5 5 5 5 5 5 5 6 7 7 7 7 7 7 7 6 5 6 6 6 5 6 7 8 8 7 6 6
6 6 7 8 9 10 10 12 12 11 11 12 12 11 12 13 13 14 15 16 15 14 14 13 13 14 15 16 17 18 19 20 20 21 22 22 21 22 23 24 24 23 20 18 17 15 14 13 12 10 8 6 5 4 4 4 5 5 6 6 6 7 7 7 8 8 8 8 7 7 7 6 5 4 5 6 5 6 7 8 8 7 6 6 5
7 7 7 8 9 10 11 13 13 11 12 13 13 11 11 13 14 14 15 15 15 14 14 13 13 13 13 14 16 17 18 18 19 19 21 22 22 21 20 22 23 23 21 19 17 16 15 14 13 11 10 9 7 6 5 5 5 6 7 7 7 8 8 8 8 8 7 7 7 6 6 6 5 5 6 6 6 7 7 8 7 7 6 5 4
6 7 7 7 9 9 10 11 12 11 12 13 14 13 12 13 14 15 15 15 15 15 15 14 13 14 13 13 14 15 16 17 18 19 19 21 22 20 19 19 20 21 21 20 18 16 15 14 13 12 11 10 9 8 7 7 6 7 8 9 9 9 9 8 8 7 7 7 6 6 6 6 6 6 7 7 7 7 7 7 6 6 5 5 5
6 8 8 8 8 10 10 11 11 11 12 14 15 14 13 13 14 15 16 15 15 16 16 14 13 14 14 13 14 15 15 16 17 18 18 19 20 20 19 18 18 19 19 20 19 17 15 13 12 12 11 10 10 9 8 8 8 8 9 9 9 10 9 9 8 7 7 6 6 6 6 7 7 7 8 8 7 7 7 6 6 6 6 6 6
8 10 10 8 8 9 9 9 10 12 13 14 14 14 15 15 15 16 16 16 16 17 17 16 15 15 15 14 14 15 15 16 16 17 18 18 18 19 19 18 18 17 17 18 19 18 16 14 13 12 11 11 10 9 9 8 8 8 9 9 9 9 9 8 8 7 7 7 7 7 8 8 8 8 8 8 8 8 7 7 7 7 7 7 8
Wind_Direction
294 296 298 300 304 309 315 318 323 329 335 337 338 343 348 347 338 327 319 311 306 304 302 296 286 285 289 288 285 285 288 290 284 274 266 259 256 253 251 246 241 241 242 241 239 236 230 227 227 229 231 229 223 218 222 227 227 227 227 228 230 231 232 235 234 232 233 232 232 235 236 230 233 241 241 235 240 246 247 244 244 246 246 247 250
287 289 290 295 304 310 316 319 321 326 332 336 339 342 347 350 346 334 321 314 311 309 306 299 291 289 290 290 290 287 286 287 284 275 265 257 254 253 252 248 244 242 241 242 243 239 231 227 227 227 231 231 222 214 221 228 229 229 228 229 232 232 232 234 233 229 228 228 230 234 235 227 228 237 236 232 240 248 249 245 245 248 247 245 246
284 285 288 296 305 310 314 318 321 324 328 332 337 340 341 343 343 337 325 317 312 307 304 300 296 295 295 295 295 290 285 288 290 283 274 265 258 256 256 253 248 245 244 248 252 248 238 231 230 230 231 232 226 219 224 229 229 230 230 229 232 234 232 230 230 227 225 227 230 234 235 229 227 232 230 230 241 248 248 247 248 248 245 243 243
281 284 289 296 303 308 311 315 320 324 326 327 330 334 336 335 334 331 325 320 314 308 304 301 299 298 297 301 301 296 291 292 292 288 282 274 266 263 261 256 249 245 246 248 250 249 242 236 236 237 236 235 229 224 228 230 228 229 231 230 229 232 231 227 224 223 223 226 229 231 233 230 230 233 230 231 241 246 245 245 248 248 242 238 241
282 283 287 293 297 302 305 309 317 322 325 326 325 326 329 329 328 326 323 320 317 312 305 300 299 297 298 304 307 303 297 291 288 286 284 279 275 272 267 259 250 243 243 244 244 246 245 241 241 240 238 236 230 224 225 228 227 226 227 228 228 229 229 225 219 217 220 224 226 230 230 226 229 235 233 233 240 247 247 243 244 247 242 234 234
280 281 285 289 291 295 298 303 310 316 320 322 322 322 323 324 325 324 322 320 318 316 310 304 299 296 296 300 303 302 299 292 287 285 285 287 287 279 270 264 258 250 246 245 243 245 248 247 245 241 239 236 233 228 226 226 227 226 227 232 234 234 234 235 228 216 218 224 225 228 229 223 225 233 236 240 244 248 250 246 241 242 242 235 229
279 281 285 288 290 292 295 300 305 309 312 315 316 317 318 319 321 321 321 321 320 320 317 311 305 299 296 296 295 296 296 293 286 280 280 287 292 285 271 262 260 258 254 249 245 245 246 247 246 243 241 236 234 234 233 233 234 232 232 237 239 238 238 241 237 219 217 226 224 223 226 224 227 233 237 243 244 240 241 240 237 238 240 238 229
282 285 288 292 294 295 297 300 303 304 306 308 309 311 312 313 314 316 317 320 321 323 321 317 312 307 303 301 298 295 295 294 289 281 278 280 283 283 274 261 255 255 254 251 249 247 245 246 246 244 242 236 233 236 235 236 237 236 236 236 237 238 236 236 235 220 217 225 223 224 228 225 226 232 234 243 246 236 232 234 234 236 238 237 228
287 289 292 294 295 297 299 300 301 303 303 304 304 305 306 306 307 309 311 315 318 321 322 320 316 312 309 307 304 299 294 293 292 285 280 276 275 276 275 267 259 255 253 251 249 247 244 244 243 242 241 236 235 239 237 235 237 236 236 234 232 235 233 231 231 222 221 225 220 224 231 227 226 230 231 241 249 240 232 230 230 234 234 231 225
289 292 294 295 295 297 299 300 301 302 301 301 301 301 302 302 302 303 305 308 311 314 318 319 318 316 314 310 307 301 293 288 287 283 278 274 273 273 272 270 266 261 257 254 251 248 244 242 240 238 239 237 236 241 238 234 235 234 232 232 230 229 228 229 230 224 223 225 221 225 234 234 230 230 230 236 239 232 230 226 224 231 231 226 227
289 292 293 295 295 296 298 299 300 300 299 300 300 300 301 300 300 301 302 304 307 310 313 315 315 316 316 314 310 306 299 290 283 279 276 274 272 271 268 267 266 262 259 256 255 252 249 247 245 241 237 234 233 237 235 230 231 232 230 231 231 228 225 227 230 226 224 226 225 228 237 239 233 227 226 231 230 225 228 226 221 228 230 226 228
291 294 294 295 296 296 297 297 297 297 297 298 299 299 300 300 300 300 301 303 304 306 309 310 311 313 314 315 314 309 305 297 286 276 273 273 271 269 266 265 263 258 257 257 257 256 253 252 250 245 240 236 233 233 230 226 228 230 228 229 231 230 228 226 227 228 229 231 230 229 232 236 236 228 221 224 225 222 227 229 224 228 232 227 227
296 298 297 297 297 297 296 296 296 296 296 297 297 298 299 299 300 300 300 302 303 305 307 308 309 310 311 313 314 311 307 301 291 280 272 270 269 267 265 265 262 254 253 256 258 257 257 256 254 248 244 241 241 238 231 225 227 228 226 226 228 229 227 225 224 226 230 234 233 229 231 236 238 232 225 223 221 217 223 229 224 225 232 232 234
300 300 299 300 300 300 299 299 299 299 299 300 300 300 300 300 301 301 301 302 302 303 305 306 307 308 309 311 312 312 309 301 294 287 278 271 268 265 259 259 260 256 253 255 257 256 256 257 257 255 248 242 239 238 232 226 227 229 227 226 227 227 226 226 226 225 227 232 231 227 232 236 232 228 227 227 225 218 218 225 220 218 226 231 234
301 301 301 302 302 302 302 302 302 303 303 304 304 303 303 303 303 303 303 303 303 303 304 305 307 308 309 310 311 311 309 303 295 290 284 275 270 266 259 255 258 260 258 255 254 255 255 256 258 258 250 240 236 234 230 225 225 228 228 227 228 229 229 229 230 228 228 232 231 227 231 235 231 227 225 224 225 221 215 217 217 216 223 229 231
304 302 303 303 302 302 302 302 304 304 304 304 304 304 305 304 303 303 303 304 304 304 304 305 306 308 309 310 311 310 308 304 297 290 285 279 274 270 264 258 255 258 261 259 256 256 256 257 259 257 246 237 238 239 233 225 224 226 227 226 226 227 228 230 234 233 230 232 234 231 232 235 234 234 232 227 225 220 211 211 217 219 223 228 229
309 307 308 308 306 305 305 305 305 304 304 304 303 304 304 303 303 302 302 303 303 304 304 303 304 306 308 308 309 309 307 304 299 292 285 280 276 272 269 264 259 257 260 261 259 257 256 255 255 253 245 236 236 237 233 227 226 225 224 224 224 224 226 230 234 235 233 232 234 234 234 233 233 234 236 234 230 223 214 214 219 222 224 227 229
315 315 317 315 313 313 311 309 308 306 306 305 304 304 304 303 303 303 302 302 302 303 304 304 304 304 305 306 307 308 306 303 300 297 289 282 278 274 272 269 265 262 263 263 261 258 258 258 255 251 244 236 233 235 234 232 232 230 228 228 228 227 227 230 232 234 235 236 235 235 234 233 231 232 233 230 225 222 219 218 219 222 225 229 233
318 319 317 315 316 315 313 312 312 310 308 307 307 307 305 304 304 305 305 305 305 305 306 306 305 304 304 305 305 304 303 301 300 298 291 283 278 276 273 269 268 267 265 265 263 258 258 262 261 251 240 231 232 238 236 231 231 232 231 232 235 233 231 233 234 233 234 236 237 236 234 232 231 232 231 225 220 219 219 218 219 222 224 227 233
321 321 319 317 315 315 315 314 312 311 309 309 310 309 307 307 306 307 309 309 309 309 308 307 307 306 305 305 304 303 301 298 298 296 291 282 274 273 270 265 264 260 255 259 266 265 261 257 248 238 229 222 227 236 234 228 229 234 236 234 236 237 236 238 240 239 238 240 241 239 236 233 232 230 226 222 221 219 219 221 222 225 230 234 239
324 325 324 320 319 322 321 316 313 313 312 313 313 311 310 309 308 308 310 311 313 314 312 310 308 308 308 307 306 305 304 300 294 289 285 277 268 268 263 255 253 249 246 254 265 266 262 253 238 230 224 220 225 233 234 230 231 239 245 241 236 237 238 238 240 240 241 242 244 243 239 235 233 229 224 222 221 220 223 226 225 228 234 237 241
327 327 327 323 322 326 325 319 316 316 315 316 316 315 313 312 311 310 311 312 314 316 316 314 312 312 313 312 309 309 309 307 298 284 274 263 254 254 252 251 254 253 255 263 264 258 260 259 252 247 240 232 233 236 235 233 233 239 248 248 240 237 237 236 238 242 243 244 246 245 241 236 232 228 224 221 221 222 225 227 227 229 231 231 234
330 331 330 327 325 327 326 323 321 318 318 319 319 319 319 318 317 316 316 316 316 317 317 316 315 315 315 315 314 312 310 310 306 293 280 268 261 261 261 263 268 271 274 278 268 256 257 260 256 251 247 242 243 244 239 234 231 232 240 248 249 246 240 236 239 244 248 250 252 250 243 234 227 222 221 222 222 221 222 226 230 231 230 230 233
336 335 334 332 332 332 334 334 332 328 327 326 325 326 327 326 325 326 325 325 324 321 319 318 316 315 315 315 316 314 311 311 313 308 298 288 282 280 276 273 274 277 280 278 267 257 255 251 243 241 241 243 249 254 252 245 236 231 234 241 248 253 251 246 244 246 249 252 253 252 246 238 230 226 228 231 232 228 225 229 233 233 231 234 239
351 348 346 345 344 343 345 347 344 341 339 336 334 334 334 333 333 334 334 334 334 330 326 323 320 319 318 315 314 315 315 313 310 307 302 295 290 291 290 283 279 279 278 274 266 258 251 244 240 240 242 245 249 253 254 251 242 235 235 239 242 245 250 252 251 249 248 250 250 248 245 242 241 240 241 242 242 238 235 237 241 242 243 246 247
10 7 3 360 358 356 356 356 354 351 350 347 343 341 341 339 338 338 338 340 341 340 338 332 327 324 323 319 316 317 319 317 307 301 298 290 281 281 282 280 277 273 268 265 266 262 253 248 248 248 248 250 251 250 251 250 241 232 233 238 241 243 245 248 251 251 251 253 254 248 242 240 241 244 246 248 248 249 250 252 255 255 254 254 251
23 19 15 11 8 6 5 4 3 2 1 358 354 351 349 347 345 343 343 344 345 346 346 344 339 334 332 330 327 323 323 324 319 311 304 294 285 283 283 283 280 275 265 256 257 262 257 252 250 247 246 250 252 250 250 250 247 242 239 237 238 242 245 245 246 249 251 252 250 247 244 244 246 249 252 254 255 256 259 261 260 257 256 256 253
32 29 23 17 14 13 11 9 7 7 7 5 3 1 358 356 355 355 353 352 351 351 352 353 352 349 347 346 344 338 333 329 324 316 309 300 291 286 284 285 285 282 276 269 263 259 255 251 246 240 240 246 249 249 249 249 248 249 247 238 235 240 245 242 241 243 245 244 244 246 250 254 256 259 261 262 262 262 261 261 260 257 256 254 253
31 31 29 24 19 17 15 12 10 10 8 7 7 7 7 6 6 5 4 2 359 358 359 359 359 358 358 356 354 351 347 342 335 328 323 315 306 296 288 283 281 279 274 269 263 256 252 251 249 243 241 245 249 251 249 240 231 229 229 227 229 235 237 237 238 244 249 251 252 254 258 260 262 264 265 265 264 262 259 258 257 256 255 254 255
31 29 30 28 22 18 17 17 16 15 12 9 8 9 11 13 14 14 13 10 7 5 5 5 6 6 3 0 359 359 358 357 355 351 346 337 328 320 311 298 287 280 272 265 259 254 249 244 239 235 234 239 245 249 246 236 229 230 233 234 237 239 238 239 244 251 255 257 258 258 258 258 257 257 257 256 256 256 255 255 256 255 253 253 251
38 32 29 28 25 22 21 20 18 17 18 17 14 12 12 13 15 18 19 17 13 11 10 10 11 10 8 5 4 4 4 3 2 360 357 354 347 340 335 326 315 304 290 274 262 255 249 243 236 231 230 233 238 241 240 236 237 243 246 246 246 246 244 243 245 248 249 250 251 251 251 251 252 253 254 255 256 256 255 254 252 247 241 236 231
41 36 32 30 29 27 26 23 19 19 22 23 22 20 18 17 17 19 22 23 20 17 16 15 13 10 10 8 6 6 6 6 5 3 2 1 359 355 350 343 337 331 323 308 289 271 258 251 249 247 246 244 242 242 242 241 241 242 244 244 245 244 244 244 245 245 247 249 250 252 254 255 256 257 256 254 252 249 245 238 228 218 206 197 191
43 37 35 35 34 31 29 27 25 24 26 28 29 29 26 24 23 23 23 24 24 23 21 20 16 13 10 8 6 6 6 5 6 7 5 3 2 1 359 354 349 342 336 330 321 309 291 273 264 259 255 252 249 247 247 246 246 247 247 248 248 249 250 252 252 253 254 255 255 254 253 252 250 246 242 237 230 221 209 195 183 178 177 178 186
45 39 37 36 36 34 31 29 28 27 29 31 29 27 26 25 24 24 23 22 23 25 23 21 19 17 14 10 7 6 5 4 4 5 6 7 6 5 4 2 359 352 345 337 331 326 318 305 293 282 272 264 259 255 252 250 249 249 249 250 252 253 253 253 253 252 251 249 247 244 240 236 231 223 214 206 197 186 176 169 165 166 179 199 216
41 36 33 32 35 35 32 31 29 27 27 28 25 21 21 21 21 22 21 20 21 23 23 21 20 19 16 13 10 7 6 6 5 3 4 6 7 7 7 6 3 359 354 348 342 338 333 326 319 310 299 290 280 272 266 262 258 255 254 253 253 253 251 249 247 244 240 236 231 226 219 212 203 193 184 178 170 161 154 153 156 173 204 224 239
41 35 30 27 30 33 31 29 28 26 24 25 23 18 17 17 18 19 19 17 17 19 21 21 20 19 18 16 15 12 8 6 7 5 4 5 6 8 9 8 7 5 2 358 354 351 348 347 344 337 328 319 308 296 284 273 262 254 248 242 237 235 235 234 231 227 222 215 205 194 184 176 170 165 160 157 152 148 152 163 170 186 211 222 225
40 34 31 25 24 29 28 24 24 23 22 22 22 20 17 14 14 15 16 15 14 15 18 20 18 17 17 17 17 16 13 10 8 7 5 5 6 6 8 9 10 10 8 5 3 0 358 359 0 358 356 351 342 335 332 319 242 190 182 182 182 181 178 176 175 174 172 169 164 160 158 157 155 152 151 151 155 168 182 186 185 194 207 212 213
40 35 32 26 26 30 28 23 23 24 21 19 19 18 16 12 10 11 12 13 12 12 15 19 17 14 16 18 18 18 17 15 11 8 6 6 6 6 8 11 11 12 12 10 8 6 4 4 5 5 6 6 4 2 4 8 22 96 127 134 140 146 148 146 144 141 139 139 140 140 141 140 137 138 145 156 173 189 199 202 202 206 212 217 221
48 38 30 25 28 30 27 23 23 24 21 17 14 13 11 8 8 9 10 11 12 10 11 17 19 16 16 17 18 19 20 20 16 12 9 8 6 5 7 10 10 12 14 12 11 11 10 8 9 9 10 11 11 12 14 18 23 34 67 95 103 107 111 115 118 118 116 116 117 117 117 119 136 170 184 188 196 203 208 212 214 216 220 223 225
44 37 28 25 29 30 26 21 19 19 20 15 8 6 5 2 4 9 10 11 12 10 9 12 16 17 16 16 16 17 19 21 21 19 15 11 9 7 6 6 7 9 11 11 12 14 13 12 13 14 15 15 15 15 17 22 27 34 44 56 64 69 72 74 78 85 90 93 95 100 121 175 205 214 214 215 216 216 216 219 224 227 230 233 233
36 32 26 25 28 28 25 20 14 12 15 12 2 358 359 359 2 7 9 9 10 10 9 9 11 13 13 12 12 14 17 19 21 21 19 16 13 9 5 3 3 3 5 6 9 12 13 14 15 16 18 20 18 17 18 19 20 25 35 42 45 46 47 48 48 51 53 41 3 301 247 234 229 226 225 227 229 230 232 235 238 238 239 242 243
35 28 23 22 24 23 21 18 13 10 8 6 1 359 0 1 4 5 2 2 6 7 7 7 8 9 9 9 9 10 12 15 17 19 19 18 17 14 9 5 1 359 359 359 2 5 8 11 14 14 16 18 18 17 18 18 17 16 18 21 23 17 2 355 359 358 297 250 242 242 241 238 234 234 236 240 245 250 252 253 252 249 248 248 248
30 26 21 20 21 19 15 14 13 10 5 3 4 6 5 4 5 3 357 356 360 2 3 4 5 5 4 5 6 5 6 8 12 14 16 16 17 16 14 9 3 360 357 355 355 358 0 3 7 11 11 12 13 13 13 13 14 10 360 347 340 336 330 332 341 335 301 271 257 250 247 246 246 249 254 257 258 259 258 257 255 254 253 250 246
18 18 15 13 14 13 11 9 8 5 4 4 6 7 6 3 1 1 359 357 356 356 357 1 4 3 0 360 1 1 1 2 4 7 12 15 15 15 16 13 7 3 359 355 352 353 354 354 356 1 5 5 3 2 4 5 4 357 346 337 336 331 323 317 316 298 278 270 267 265 267 269 269 269 267 264 261 260 261 259 254 249 246 241 234
9 9 5 5 6 3 2 3 1 360 1 3 5 6 5 2 359 0 1 359 354 350 352 357 0 359 356 356 356 356 357 358 358 360 5 11 13 12 14 15 11 6 2 358 353 351 351 351 349 350 355 356 351 349 349 348 344 341 337 331 323 312 303 297 290 283 280 279 276 274 277 280 280 277 272 267 264 263 261 255 246 239 231 223 217
353 355 352 355 358 356 355 357 356 353 355 358 360 3 4 1 359 358 358 356 355 352 350 353 355 354 351 352 352 351 351 353 355 356 359 5 10 10 10 13 14 11 5 1 357 353 351 350 347 344 341 339 337 334 329 327 330 331 326 316 307 301 300 298 293 289 288 287 283 280 280 278 274 270 268 265 259 249 239 234 233 229 219 209 205
332 340 345 347 348 349 351 353 352 352 356 357 358 2 5 1 358 358 357 357 356 353 348 347 349 348 346 345 345 345 346 348 351 353 353 357 5 8 5 7 12 14 11 5 1 358 354 352 348 345 340 333 325 315 308 311 316 310 303 302 304 304 301 297 294 293 294 292 288 285 281 273 261 246 243 242 236 227 225 226 228 226 218 210 212
319 328 337 344 344 343 348 352 352 354 360 0 358 1 4 1 357 358 0 360 355 349 345 344 343 343 342 339 338 341 344 344 346 348 349 349 355 3 3 1 5 10 12 10 6 1 359 356 352 348 343 337 330 323 315 309 302 295 296 302 305 302 299 298 297 296 294 288 281 274 267 258 248 238 235 232 225 223 224 225 227 230 230 231 236
315 321 326 334 338 338 344 350 349 348 352 354 352 354 360 0 358 358 1 1 355 350 349 350 346 342 342 340 335 336 339 338 338 342 343 342 345 353 358 358 357 1 6 10 9 5 3 1 357 352 347 341 337 335 330 321 311 305 305 307 307 305 305 303 299 295 290 281 273 265 257 251 245 240 238 236 232 232 235 235 238 244 250 254 257
307 319 324 328 332 335 339 345 343 340 343 346 345 346 353 358 358 358 359 359 356 353 355 358 353 344 341 339 335 333 334 334 333 335 337 336 338 343 348 350 351 354 359 3 4 4 5 5 2 359 355 349 343 339 333 326 320 316 313 311 309 307 305 303 299 293 285 275 267 261 257 253 250 247 247 246 243 243 247 251 253 255 256 256 256
298 317 323 324 326 327 329 335 335 332 336 342 341 340 345 352 354 354 355 356 355 355 357 359 357 351 346 343 338 334 331 331 330 330 330 330 332 335 337 341 345 348 351 355 358 359 360 0 0 2 3 358 350 344 339 331 325 320 314 309 307 304 301 297 292 285 277 270 267 264 262 259 257 255 255 254 252 251 251 252 253 255 255 254 252
Height
3128 3128 3127 3126 3125 3125 3123 3122 3121 3120 3119 3118 3116 3114 3112 3109 3107 3105 3104 3104 3104 3103 3102 3102 3103 3103 3102 3102 3102 3102 3102 3102 3102 3100 3100 3100 3100 3101 3101 3102 3103 3105 3107 3108 3110 3112 3112 3113 3114 3116 3118 3120 3121 3121 3122 3125 3126 3128 3129 3130 3130 3132 3132 3132 3133 3134 3134 3135 3136 3136 3137 3138 3137 3138 3139 3140 3140 3140 3141 3142 3141 3142 3143 3143 3145
3127 3126 3126 3125 3124 3123 3122 3121 3120 3119 3118 3117 3115 3113 3111 3109 3107 3105 3104 3104 3103 3103 3102 3101 3101 3101 3101 3100 3100 3099 3099 3099 3099 3098 3098 3099 3098 3097 3097 3098 3099 3101 3104 3106 3108 3110 3111 3111 3113 3114 3116 3118 3118 3117 3120 3122 3124 3125 3126 3127 3127 3129 3129 3129 3130 3131 3132 3133 3134 3134 3134 3135 3135 3136 3137 3138 3137 3138 3139 3140 3140 3140 3141 3142 3143
3126 3125 3124 3124 3123 3122 3121 3120 3119 3118 3117 3116 3114 3112 3110 3109 3107 3106 3104 3104 3103 3102 3101 3100 3100 3100 3100 3100 3099 3097 3096 3097 3097 3096 3096 3097 3096 3095 3095 3096 3097 3098 3100 3102 3104 3106 3108 3109 3111 3112 3113 3116 3116 3115 3117 3120 3120 3121 3122 3123 3124 3125 3125 3126 3127 3128 3129 3130 3131 3131 3131 3132 3133 3134 3135 3136 3135 3135 3137 3137 3138 3139 3139 3140 3141
3124 3123 3123 3122 3121 3120 3120 3119 3118 3117 3116 3115 3113 3112 3110 3108 3107 3106 3104 3103 3102 3101 3100 3099 3099 3099 3098 3098 3098 3097 3096 3096 3096 3095 3094 3094 3093 3093 3094 3094 3094 3096 3098 3100 3101 3102 3104 3107 3109 3110 3111 3112 3112 3113 3115 3116 3117 3118 3119 3120 3121 3120 3120 3123 3124 3124 3126 3128 3128 3129 3129 3131 3132 3132 3133 3134 3133 3133 3135 3136 3136 3137 3137 3138 3139
3123 3122 3121 3120 3120 3119 3118 3117 3117 3116 3115 3113 3112 3111 3109 3108 3106 3105 3104 3103 3101 3101 3099 3098 3097 3096 3095 3095 3095 3094 3095 3095 3094 3093 3092 3092 3091 3092 3092 3093 3093 3094 3095 3097 3098 3099 3102 3105 3107 3108 3109 3109 3110 3110 3111 3112 3112 3113 3114 3115 3115 3115 3116 3120 3121 3121 3123 3125 3126 3126 3127 3129 3129 3129 3130 3132 3132 3131 3133 3134 3134 3134 3135 3137 3137
3121 3120 3120 3119 3118 3118 3117 3116 3115 3114 3113 3112 3111 3109 3108 3107 3105 3104 3103 3102 3100 3099 3098 3096 3095 3094 3093 3093 3092 3092 3093 3093 3092 3090 3090 3090 3090 3090 3090 3091 3092 3092 3093 3094 3096 3097 3100 3102 3104 3105 3106 3107 3108 3106 3105 3106 3108 3109 3111 3112 3113 3114 3116 3120 3121 3121 3122 3123 3123 3124 3125 3126 3127 3127 3128 3129 3130 3130 3130 3131 3132 3132 3133 3135 3136
3119 3119 3118 3117 3117 3116 3115 3114 3114 3113 3112 3111 3110 3108 3107 3105 3104 3103 3102 3101 3099 3098 3096 3094 3093 3092 3091 3091 3091 3090 3090 3090 3090 3088 3087 3087 3088 3088 3088 3089 3090 3091 3091 3092 3094 3096 3097 3099 3100 3102 3103 3104 3105 3103 3103 3105 3108 3110 3110 3110 3112 3114 3115 3117 3119 3120 3120 3120 3121 3121 3123 3124 3125 3126 3126 3126 3128 3128 3127 3128 3129 3130 3131 3132 3134
3118 3117 3116 3115 3115 3114 3113 3112 3112 3111 3110 3109 3108 3107 3105 3104 3102 3101 3100 3099 3098 3097 3095 3093 3091 3090 3089 3088 3088 3088 3088 3088 3088 3086 3085 3085 3086 3085 3086 3086 3087 3088 3089 3090 3091 3093 3094 3095 3097 3098 3100 3101 3101 3102 3103 3105 3106 3107 3108 3109 3110 3111 3112 3114 3117 3117 3118 3119 3119 3119 3121 3122 3123 3123 3123 3123 3124 3125 3125 3126 3127 3128 3130 3131 3132
3116 3115 3114 3113 3113 3112 3111 3110 3110 3109 3108 3107 3106 3105 3104 3102 3101 3099 3098 3098 3097 3095 3094 3092 3090 3089 3088 3087 3086 3085 3085 3086 3085 3085 3084 3083 3083 3084 3084 3083 3084 3085 3086 3086 3088 3090 3092 3092 3093 3095 3096 3098 3099 3100 3101 3102 3103 3104 3105 3106 3107 3108 3108 3110 3113 3114 3115 3116 3117 3116 3118 3120 3120 3121 3121 3120 3122 3123 3124 3124 3125 3126 3128 3129 3131
3114 3113 3112 3112 3111 3110 3109 3108 3107 3106 3106 3105 3104 3103 3102 3100 3099 3098 3097 3096 3095 3094 3092 3091 3089 3087 3086 3085 3084 3083 3082 3083 3083 3082 3081 3080 3081 3082 3082 3082 3082 3083 3083 3084 3085 3087 3088 3088 3089 3091 3093 3095 3096 3096 3097 3098 3100 3101 3101 3102 3104 3105 3106 3107 3109 3111 3112 3113 3114 3114 3115 3117 3118 3119 3119 3119 3121 3121 3122 3123 3124 3125 3126 3127 3129
3112 3111 3111 3110 3109 3108 3107 3106 3105 3104 3103 3102 3101 3100 3099 3098 3097 3096 3095 3093 3092 3091 3090 3089 3087 3085 3084 3083 3081 3080 3080 3079 3079 3079 3078 3078 3078 3079 3080 3080 3080 3080 3081 3081 3082 3083 3084 3085 3086 3088 3089 3091 3092 3092 3093 3095 3096 3097 3098 3099 3100 3101 3103 3104 3105 3107 3108 3110 3111 3112 3112 3114 3115 3117 3117 3118 3119 3119 3120 3121 3122 3123 3124 3126 3127
3110 3110 3109 3108 3107 3106 3105 3104 3103 3102 3101 3100 3099 3098 3097 3096 3095 3093 3092 3091 3090 3089 3088 3086 3085 3083 3082 3080 3079 3078 3077 3076 3075 3075 3075 3075 3075 3075 3076 3077 3077 3077 3078 3078 3079 3079 3079 3081 3084 3084 3085 3086 3086 3086 3089 3091 3093 3094 3095 3096 3097 3098 3099 3101 3102 3103 3105 3106 3108 3109 3110 3110 3112 3114 3115 3115 3116 3117 3118 3119 3120 3121 3122 3123 3124
3108 3108 3107 3106 3105 3104 3103 3102 3101 3099 3098 3097 3096 3095 3094 3093 3092 3091 3090 3088 3087 3086 3084 3083 3082 3080 3079 3078 3076 3075 3074 3072 3071 3071 3071 3071 3072 3072 3073 3073 3074 3075 3076 3076 3076 3076 3076 3078 3080 3080 3081 3082 3082 3083 3086 3088 3089 3090 3091 3093 3094 3095 3096 3097 3099 3100 3102 3103 3104 3105 3107 3108 3109 3112 3112 3112 3114 3115 3116 3117 3119 3120 3120 3120 3121
3106 3106 3105 3104 3103 3102 3100 3099 3098 3097 3096 3095 3094 3092 3091 3090 3089 3088 3087 3085 3084 3083 3081 3080 3079 3077 3076 3074 3073 3072 3071 3070 3069 3068 3067 3067 3068 3068 3069 3070 3070 3072 3072 3072 3073 3073 3073 3074 3075 3075 3077 3079 3080 3081 3083 3084 3085 3087 3088 3090 3091 3092 3093 3094 3095 3097 3100 3100 3099 3102 3104 3106 3107 3108 3109 3110 3111 3112 3113 3115 3117 3118 3118 3118 3119
3105 3104 3103 3102 3101 3099 3098 3097 3096 3094 3093 3092 3091 3089 3088 3087 3086 3084 3083 3082 3081 3080 3078 3076 3075 3074 3072 3071 3070 3069 3068 3067 3066 3065 3064 3064 3064 3064 3066 3067 3067 3067 3068 3069 3069 3070 3070 3071 3072 3072 3073 3075 3077 3078 3079 3081 3081 3083 3085 3087 3088 3090 3091 3092 3092 3094 3096 3097 3098 3100 3102 3103 3103 3104 3105 3106 3108 3109 3110 3112 3114 3115 3115 3116 3118
3103 3102 3101 3100 3099 3097 3096 3095 3093 3092 3091 3089 3088 3087 3085 3084 3083 3082 3080 3079 3077 3076 3075 3073 3072 3070 3069 3068 3066 3065 3065 3064 3063 3062 3061 3061 3061 3061 3062 3063 3063 3063 3064 3065 3066 3067 3068 3069 3070 3070 3070 3071 3073 3075 3077 3078 3078 3080 3082 3084 3086 3087 3089 3089 3090 3091 3093 3095 3096 3097 3098 3099 3100 3101 3102 3103 3104 3105 3107 3108 3110 3111 3113 3114 3115
3100 3099 3099 3098 3096 3095 3094 3092 3091 3090 3088 3087 3086 3084 3083 3082 3080 3079 3078 3076 3075 3073 3072 3070 3069 3068 3066 3065 3063 3062 3062 3061 3060 3059 3058 3058 3058 3058 3058 3059 3060 3060 3061 3061 3062 3064 3065 3066 3067 3068 3068 3069 3071 3072 3074 3076 3076 3078 3080 3081 3083 3085 3086 3087 3086 3087 3089 3091 3093 3094 3094 3095 3097 3098 3099 3100 3101 3102 3103 3104 3105 3108 3110 3111 3112
3099 3098 3097 3096 3094 3093 3092 3091 3089 3088 3086 3085 3084 3082 3081 3079 3077 3076 3075 3073 3072 3071 3069 3068 3066 3065 3064 3062 3061 3060 3059 3058 3057 3056 3056 3055 3055 3055 3055 3056 3057 3057 3058 3059 3060 3061 3061 3061 3063 3065 3065 3066 3068 3069 3071 3072 3073 3075 3076 3077 3079 3081 3082 3083 3083 3084 3086 3087 3088 3089 3089 3090 3093 3094 3095 3096 3098 3099 3099 3100 3102 3105 3107 3108 3108
3097 3096 3095 3094 3093 3091 3090 3089 3087 3086 3084 3083 3082 3081 3079 3077 3075 3074 3072 3071 3069 3068 3066 3065 3064 3063 3062 3060 3059 3057 3056 3055 3055 3054 3053 3052 3052 3052 3053 3053 3054 3055 3055 3056 3057 3058 3058 3058 3059 3060 3061 3063 3064 3065 3068 3069 3070 3072 3073 3074 3076 3077 3078 3079 3080 3081 3082 3082 3083 3084 3086 3087 3089 3090 3091 3093 3093 3094 3095 3097 3099 3101 3102 3103 3103
3096 3095 3093 3092 3091 3090 3089 3087 3086 3084 3083 3081 3080 3079 3077 3075 3074 3072 3070 3069 3067 3066 3064 3063 3062 3060 3059 3058 3056 3055 3054 3053 3053 3052 3051 3050 3050 3050 3051 3051 3052 3053 3053 3053 3054 3055 3055 3055 3056 3056 3057 3059 3060 3062 3064 3066 3067 3068 3070 3072 3073 3074 3074 3076 3076 3078 3079 3079 3079 3080 3082 3084 3084 3085 3087 3089 3090 3091 3092 3094 3095 3097 3097 3098 3099
3094 3093 3092 3090 3089 3089 3088 3086 3084 3083 3081 3080 3079 3077 3075 3074 3072 3070 3069 3067 3065 3064 3062 3061 3060 3058 3057 3055 3054 3053 3052 3051 3051 3050 3049 3049 3048 3048 3049 3049 3049 3050 3050 3051 3052 3052 3052 3053 3054 3054 3055 3056 3057 3058 3060 3061 3063 3065 3068 3069 3070 3070 3071 3073 3074 3074 3075 3076 3076 3077 3078 3079 3080 3081 3082 3084 3087 3089 3090 3090 3092 3093 3094 3094 3096
3093 3092 3091 3089 3088 3088 3087 3085 3083 3082 3080 3079 3077 3075 3074 3072 3070 3069 3067 3065 3064 3063 3061 3059 3058 3057 3055 3054 3052 3051 3050 3049 3049 3048 3048 3047 3047 3047 3047 3047 3047 3047 3048 3049 3050 3050 3049 3050 3052 3052 3053 3054 3054 3055 3057 3058 3059 3062 3064 3066 3067 3067 3068 3069 3070 3070 3072 3073 3074 3074 3075 3076 3077 3078 3079 3079 3082 3085 3086 3087 3088 3089 3090 3090 3092
3092 3091 3090 3088 3087 3087 3086 3084 3082 3081 3080 3078 3076 3074 3072 3070 3069 3067 3065 3064 3062 3061 3059 3058 3057 3055 3054 3052 3051 3050 3048 3047 3047 3046 3046 3046 3045 3045 3045 3045 3045 3045 3045 3046 3047 3048 3048 3049 3050 3051 3051 3052 3052 3052 3054 3055 3056 3058 3061 3063 3064 3065 3065 3066 3067 3067 3069 3070 3071 3072 3072 3074 3075 3076 3076 3076 3078 3080 3082 3082 3083 3084 3084 3086 3087
3091 3090 3089 3088 3087 3086 3085 3084 3082 3080 3079 3077 3075 3073 3071 3069 3068 3066 3064 3062 3061 3059 3058 3056 3055 3054 3053 3051 3050 3048 3047 3046 3045 3044 3044 3044 3044 3043 3043 3043 3043 3043 3043 3044 3045 3046 3046 3047 3048 3049 3049 3049 3050 3050 3051 3053 3054 3055 3057 3059 3061 3061 3062 3063 3064 3065 3066 3067 3068 3069 3069 3071 3072 3073 3073 3074 3076 3077 3077 3077 3078 3079 3080 3081 3083
3091 3090 3089 3088 3087 3085 3084 3083 3081 3079 3078 3076 3075 3073 3071 3069 3067 3065 3063 3061 3059 3058 3056 3055 3053 3052 3051 3050 3049 3047 3046 3045 3043 3043 3042 3042 3042 3042 3042 3042 3042 3042 3042 3042 3043 3044 3044 3045 3046 3047 3047 3047 3048 3049 3050 3050 3051 3053 3055 3056 3057 3058 3059 3060 3061 3062 3062 3063 3064 3065 3066 3067 3069 3069 3070 3072 3072 3072 3073 3075 3076 3077 3077 3078 3079
3091 3090 3089 3088 3086 3085 3084 3083 3081 3079 3078 3076 3074 3072 3070 3068 3066 3064 3062 3061 3059 3057 3056 3054 3052 3051 3049 3048 3047 3046 3045 3044 3042 3041 3041 3040 3040 3041 3041 3041 3041 3041 3041 3041 3041 3042 3042 3043 3044 3045 3045 3045 3046 3047 3048 3048 3049 3051 3053 3053 3054 3055 3056 3057 3058 3059 3059 3060 3061 3062 3063 3064 3065 3066 3067 3068 3068 3069 3070 3072 3073 3073 3073 3074 3074
3091 3090 3089 3088 3086 3085 3084 3082 3081 3079 3078 3076 3074 3072 3070 3068 3066 3065 3063 3061 3059 3057 3055 3054 3052 3050 3049 3047 3046 3045 3044 3043 3042 3040 3040 3039 3039 3039 3039 3039 3039 3040 3040 3040 3040 3040 3041 3041 3042 3043 3043 3043 3043 3044 3045 3046 3047 3048 3049 3050 3051 3052 3053 3053 3054 3055 3056 3057 3057 3058 3059 3060 3061 3063 3064 3065 3065 3066 3066 3067 3068 3068 3068 3069 3068
3091 3090 3089 3087 3086 3085 3083 3082 3081 3079 3078 3076 3074 3072 3070 3069 3067 3065 3062 3061 3059 3057 3055 3053 3052 3050 3048 3047 3045 3044 3043 3042 3041 3040 3039 3038 3038 3037 3037 3037 3038 3038 3038 3038 3038 3039 3039 3039 3040 3041 3040 3040 3040 3040 3041 3042 3043 3044 3045 3046 3047 3048 3048 3049 3050 3051 3052 3053 3054 3054 3055 3056 3057 3059 3060 3060 3061 3062 3062 3062 3063 3063 3065 3065 3065
3091 3090 3089 3088 3086 3085 3084 3082 3081 3079 3078 3076 3074 3073 3071 3069 3067 3065 3063 3061 3059 3057 3055 3053 3052 3050 3048 3047 3045 3044 3042 3041 3040 3039 3038 3037 3037 3036 3036 3036 3036 3036 3036 3036 3036 3036 3036 3037 3037 3038 3038 3037 3037 3037 3038 3039 3039 3039 3040 3041 3042 3043 3044 3045 3046 3047 3048 3049 3050 3051 3052 3053 3053 3054 3055 3055 3056 3057 3057 3058 3059 3060 3061 3062 3062
3091 3090 3089 3088 3087 3085 3084 3082 3081 3080 3078 3076 3075 3073 3072 3070 3068 3066 3064 3062 3060 3058 3056 3054 3052 3050 3049 3047 3045 3043 3042 3040 3039 3038 3037 3037 3036 3035 3034 3034 3034 3034 3034 3034 3034 3034 3034 3034 3034 3035 3035 3035 3035 3035 3036 3037 3037 3037 3038 3038 3039 3040 3041 3041 3042 3042 3044 3045 3046 3047 3048 3048 3049 3050 3051 3051 3052 3053 3054 3054 3056 3057 3057 3058 3059
3092 3091 3090 3088 3087 3086 3084 3083 3082 3080 3079 3077 3075 3074 3072 3071 3069 3067 3066 3063 3061 3059 3057 3055 3053 3051 3050 3048 3046 3044 3043 3041 3040 3039 3037 3036 3035 3035 3034 3033 3033 3032 3032 3032 3032 3032 3032 3032 3032 3032 3032 3032 3032 3033 3033 3034 3035 3035 3035 3035 3036 3036 3037 3038 3038 3039 3040 3041 3042 3043 3044 3045 3045 3046 3047 3048 3049 3050 3050 3051 3052 3053 3054 3055 3056
3093 3092 3090 3089 3088 3087 3085 3084 3083 3081 3080 3078 3077 3075 3073 3071 3070 3068 3067 3065 3063 3061 3058 3056 3055 3053 3051 3049 3048 3046 3044 3043 3041 3040 3038 3037 3036 3035 3034 3033 3032 3031 3031 3030 3030 3030 3030 3030 3030 3030 3030 3030 3030 3031 3031 3031 3032 3032 3032 3032 3033 3033 3034 3035 3036 3036 3037 3038 3039 3040 3040 3041 3042 3043 3044 3045 3045 3046 3047 3048 3049 3050 3052 3053 3055
3093 3092 3091 3090 3089 3088 3087 3085 3084 3082 3081 3080 3078 3077 3075 3073 3071 3069 3067 3066 3064 3062 3060 3058 3056 3054 3052 3051 3049 3047 3045 3044 3042 3041 3039 3038 3037 3035 3034 3034 3033 3032 3031 3030 3029 3028 3028 3028 3028 3028 3028 3028 3028 3029 3029 3029 3030 3030 3030 3031 3031 3032 3032 3033 3033 3034 3034 3035 3036 3036 3037 3038 3038 3039 3040 3041 3042 3043 3044 3046 3047 3049 3051 3052 3054
3094 3093 3092 3091 3090 3089 3087 3086 3085 3084 3082 3081 3080 3078 3077 3075 3073 3071 3069 3067 3065 3063 3061 3059 3057 3056 3054 3052 3050 3048 3047 3045 3043 3042 3040 3039 3038 3036 3035 3034 3033 3032 3031 3030 3029 3028 3028 3027 3027 3026 3026 3026 3026 3026 3026 3027 3027 3027 3028 3028 3029 3029 3029 3030 3030 3031 3031 3032 3032 3033 3034 3034 3035 3036 3037 3039 3040 3041 3043 3044 3046 3048 3049 3051 3052
3095 3094 3093 3092 3091 3090 3088 3087 3086 3085 3083 3082 3081 3079 3078 3076 3074 3073 3071 3069 3067 3065 3063 3061 3059 3057 3055 3054 3052 3050 3048 3046 3045 3043 3041 3040 3038 3037 3036 3035 3034 3033 3032 3031 3030 3029 3028 3027 3026 3026 3026 3025 3025 3025 3025 3025 3025 3025 3025 3025 3026 3026 3027 3027 3028 3028 3029 3029 3030 3031 3032 3033 3034 3035 3037 3038 3040 3041 3043 3044 3046 3048 3049 3051 3052
3096 3095 3094 3093 3092 3090 3089 3088 3087 3086 3084 3083 3082 3080 3079 3077 3075 3074 3072 3070 3068 3067 3065 3063 3061 3059 3057 3055 3053 3051 3049 3047 3046 3044 3043 3041 3039 3038 3037 3036 3035 3033 3032 3032 3031 3030 3029 3028 3027 3027 3026 3026 3025 3025 3025 3024 3024 3024 3024 3024 3024 3025 3025 3026 3026 3027 3028 3029 3030 3031 3032 3033 3034 3035 3037 3038 3040 3042 3043 3045 3046 3048 3049 3050 3052
3097 3096 3095 3094 3092 3091 3090 3089 3088 3086 3085 3084 3083 3081 3080 3078 3076 3075 3073 3071 3069 3068 3066 3064 3063 3061 3059 3056 3054 3052 3050 3048 3047 3045 3044 3042 3041 3039 3038 3037 3035 3034 3033 3033 3032 3031 3030 3030 3029 3028 3027 3027 3026 3026 3026 3025 3025 3024 3024 3024 3024 3024 3025 3026 3026 3027 3028 3029 3030 3031 3032 3033 3035 3036 3037 3039 3040 3042 3043 3044 3046 3047 3048 3050 3051
3098 3096 3095 3095 3093 3092 3091 3090 3089 3087 3086 3085 3083 3082 3081 3079 3078 3076 3074 3072 3070 3069 3067 3065 3064 3062 3060 3058 3056 3054 3052 3050 3048 3047 3045 3044 3042 3041 3039 3038 3037 3035 3035 3034 3033 3032 3032 3031 3030 3030 3029 3028 3028 3027 3027 3027 3026 3026 3026 3026 3026 3026 3026 3027 3027 3028 3029 3030 3031 3032 3033 3034 3035 3037 3038 3040 3041 3042 3043 3044 3045 3047 3048 3049 3050
3098 3097 3096 3095 3094 3093 3091 3090 3089 3088 3087 3086 3084 3082 3081 3080 3078 3077 3075 3073 3071 3069 3068 3066 3065 3063 3061 3059 3057 3056 3054 3052 3050 3048 3047 3045 3043 3042 3040 3039 3038 3037 3036 3035 3034 3033 3033 3032 3031 3031 3030 3030 3029 3029 3028 3028 3028 3028 3028 3027 3028 3028 3028 3029 3029 3030 3030 3031 3032 3033 3034 3035 3036 3038 3039 3040 3041 3042 3043 3044 3045 3046 3047 3048 3049
3098 3097 3097 3096 3095 3093 3092 3091 3089 3088 3087 3086 3084 3083 3082 3080 3079 3077 3075 3074 3072 3070 3068 3067 3065 3064 3062 3060 3059 3057 3055 3053 3052 3050 3048 3046 3045 3043 3042 3040 3039 3038 3037 3036 3035 3034 3034 3033 3032 3032 3031 3031 3030 3030 3029 3029 3029 3029 3029 3029 3030 3030 3030 3031 3031 3032 3032 3033 3033 3034 3035 3036 3037 3039 3040 3041 3042 3042 3043 3044 3044 3045 3046 3047 3048
3098 3098 3097 3096 3095 3093 3092 3091 3090 3088 3087 3086 3085 3084 3082 3080 3079 3077 3075 3074 3072 3071 3069 3067 3066 3064 3063 3061 3059 3058 3056 3055 3053 3051 3049 3048 3046 3044 3043 3042 3040 3039 3038 3037 3036 3035 3035 3034 3033 3033 3032 3032 3031 3031 3031 3030 3030 3030 3030 3031 3031 3032 3032 3032 3033 3033 3034 3034 3035 3035 3036 3037 3038 3039 3040 3041 3041 3042 3042 3043 3044 3045 3045 3046 3047
3099 3098 3097 3096 3095 3093 3093 3092 3090 3089 3088 3086 3085 3084 3082 3081 3079 3077 3075 3074 3073 3071 3070 3068 3066 3065 3063 3062 3060 3059 3057 3056 3054 3052 3051 3049 3047 3045 3044 3042 3041 3040 3039 3038 3037 3036 3035 3035 3034 3034 3033 3033 3032 3032 3032 3032 3031 3032 3032 3032 3032 3033 3033 3034 3034 3034 3035 3035 3035 3036 3037 3038 3039 3039 3040 3040 3041 3041 3042 3042 3043 3044 3044 3045 3045
3098 3098 3097 3096 3095 3094 3093 3092 3091 3089 3088 3087 3085 3084 3082 3081 3079 3078 3076 3075 3073 3072 3071 3069 3067 3065 3064 3063 3061 3059 3058 3057 3055 3054 3052 3050 3048 3047 3045 3043 3042 3041 3039 3038 3038 3037 3036 3035 3035 3034 3034 3034 3033 3033 3033 3033 3033 3033 3033 3033 3034 3034 3034 3035 3035 3035 3035 3036 3036 3037 3038 3038 3039 3039 3040 3040 3040 3041 3041 3041 3042 3043 3043 3044 3044
3098 3098 3097 3096 3095 3094 3093 3092 3091 3090 3088 3087 3085 3084 3082 3081 3080 3079 3077 3076 3074 3072 3071 3069 3068 3066 3065 3063 3062 3060 3059 3057 3056 3055 3053 3052 3050 3048 3046 3044 3043 3041 3040 3039 3038 3037 3037 3036 3035 3035 3035 3034 3034 3034 3034 3034 3034 3034 3034 3034 3035 3035 3035 3035 3035 3036 3036 3036 3037 3037 3038 3038 3039 3039 3040 3040 3040 3040 3040 3041 3041 3042 3042 3043 3044
3098 3097 3096 3096 3095 3094 3093 3092 3091 3089 3088 3087 3085 3084 3083 3081 3080 3079 3077 3076 3075 3073 3071 3069 3068 3067 3065 3064 3062 3061 3060 3058 3057 3055 3054 3053 3051 3049 3047 3046 3044 3042 3041 3040 3039 3038 3037 3036 3036 3035 3035 3035 3034 3034 3034 3034 3034 3034 3035 3035 3035 3035 3035 3036 3036 3036 3036 3036 3037 3037 3038 3038 3038 3039 3039 3039 3039 3039 3040 3040 3040 3041 3042 3042 3043
3097 3097 3096 3095 3094 3093 3092 3091 3090 3089 3088 3087 3085 3084 3083 3082 3080 3079 3078 3076 3075 3073 3072 3070 3069 3067 3066 3064 3063 3062 3060 3059 3058 3056 3054 3054 3052 3051 3049 3047 3046 3044 3042 3041 3040 3039 3038 3037 3036 3036 3035 3035 3035 3035 3035 3034 3035 3035 3035 3035 3035 3035 3036 3036 3036 3036 3036 3036 3037 3037 3037 3037 3038 3038 3038 3038 3039 3039 3040 3040 3040 3041 3042 3042 3042
3097 3096 3095 3095 3094 3093 3092 3091 3090 3089 3088 3087 3085 3084 3083 3082 3080 3079 3078 3077 3075 3074 3072 3071 3069 3068 3066 3065 3063 3062 3061 3059 3058 3057 3055 3054 3053 3052 3050 3048 3047 3045 3043 3042 3040 3039 3038 3037 3037 3036 3036 3035 3035 3035 3035 3035 3035 3035 3035 3035 3035 3035 3036 3036 3036 3036 3036 3036 3036 3037 3037 3037 3037 3038 3038 3038 3039 3039 3040 3040 3040 3041 3041 3041 3041
3096 3095 3094 3094 3093 3092 3091 3090 3089 3088 3088 3087 3085 3084 3083 3082 3080 3079 3078 3077 3075 3074 3073 3071 3070 3068 3067 3065 3064 3062 3061 3059 3058 3057 3055 3054 3053 3052 3051 3049 3047 3046 3045 3043 3041 3040 3039 3038 3037 3036 3036 3035 3035 3034 3034 3035 3035 3035 3035 3035 3035 3035 3035 3035 3035 3035 3036 3036 3036 3036 3037 3037 3037 3038 3038 3038 3039 3039 3039 3040 3040 3040 3040 3040 3040
3095 3094 3094 3093 3092 3091 3090 3090 3089 3088 3087 3086 3085 3084 3083 3082 3080 3079 3078 3077 3075 3074 3073 3071 3070 3068 3067 3066 3064 3063 3062 3060 3058 3057 3056 3054 3053 3052 3051 3050 3048 3047 3045 3044 3042 3041 3040 3039 3038 3037 3036 3036 3035 3035 3034 3034 3034 3034 3034 3034 3035 3034 3035 3035 3035 3035 3035 3035 3036 3036 3036 3037 3037 3037 3038 3038 3038 3039 3039 3039 3039 3038 3038 3038 3038
3094 3094 3093 3092 3091 3090 3089 3089 3088 3087 3086 3085 3084 3083 3083 3082 3080 3079 3078 3076 3075 3074 3072 3071 3070 3069 3067 3066 3064 3063 3062 3060 3059 3058 3056 3055 3053 3052 3051 3050 3049 3047 3046 3044 3043 3042 3041 3040 3039 3038 3037 3036 3036 3035 3035 3034 3034 3034 3034 3034 3034 3034 3034 3034 3034 3034 3035 3035 3035 3035 3036 3036 3036 3037 3037 3037 3038 3038 3038 3038 3037 3037 3037 3037 3038
3093 3093 3092 3091 3090 3089 3088 3088 3087 3086 3085 3085 3084 3083 3082 3081 3080 3078 3077 3076 3075 3073 3072 3071 3070 3068 3067 3065 3064 3063 3061 3060 3059 3058 3056 3055 3054 3052 3051 3049 3048 3047 3046 3045 3043 3042 3041 3040 3039 3038 3037 3037 3036 3035 3035 3035 3034 3034 3034 3033 3033 3033 3033 3033 3033 3034 3034 3034 3034 3035 3035 3035 3036 3036 3036 3037 3037 3037 3037 3037 3036 3036 3037 3037 3037